Other Surface Observations
Issued by NWS Charleston, SC

Home | Current Version | Previous Version | Text Only | Print | Product List | Glossary On
Versions: 1 2 3 4 5 6 7 8 9 10 11 12 13 14 15 16 17 18 19 20 21 22 23 24 25 26 27 28 29 30 31 32 33 34 35 36 37 38 39 40 41 42 43 44 45 46 47 48 49 50
000
SXUS52 KCHS 162012
OSOCHS

MARINE OBSERVATIONS
NATIONAL WEATHER SERVICE CHARLESTON SC
400 PM EDT WED AUG 16 2017

...DOWNTOWN CHARLESTON AND HARBOR...

CITY           SKY/WX    TMP DP  RH WIND       PRES   REMARKS
WATERFRONT PRK   N/A    N/A N/A N/A SW7       29.83F

...LAKE MOULTRIE...

CITY           SKY/WX    TMP DP  RH WIND       PRES   REMARKS
PINOPOLIS        N/A     91  79  66 CALM      29.91F HX 107

...LAKE AND SUPPLEMENTAL COASTAL OBSERVATIONS...

STATION/POSITION TIME  TEMP    WIND        PRES    WAVE   SWELL
                       AIR SEA DIR/SP/G            HT/PER HT/PER/DIR
                 (UTC) (F)     (DEG/KT/KT) (MB)    (FT/S) (FT/S/D)
FORT PULASKI     1948   88 86  170/  5/  8 1016.1F
SAPELO ISLAND    1900   94        CALM     1016.0
WINYAH BAY       1845   87     160/  9     1016.0
LAKE MURRAY      1920   90     160/  7/  8 1014.6
ACE BASIN NERRS  1845   92     280/  1     1016.0


...C-MAN AND BUOY OBSERVATIONS...

STATION/POSITION TIME  TEMP    WIND        PRES    WAVE   SWELL
                       AIR SEA DIR/SP/G            HT/PER HT/PER/DIR
                 (UTC) (F)     (DEG/KT/KT) (MB)    (FT/S) (FT/S/D)
BUOY 41004       1950   84 85  220/ 10/ 12 1015.3F   2/ 4   2/110/ 8
BUOY 41008       1850   86 85  190/  8/ 10 1016.5    1/ 7   2/ 70/ 7
FOLLY BEACH CMAN 2000   87     200/ 13/ 15 1016.1F
CAPERS NS BUOY   1908   85 86  210/ 10/ 16 1015.3F
FRIPP NS BUOY    1908   86     200/ 12/ 16 1015.4F
5E ST. MARYS GA  2000      86                N/A     1/ 8


STATION/POSITION TIME  TEMP    WIND        PRES    WAVE   SWELL
                       AIR SEA DIR/SP/G            HT/PER HT/PER/DIR
                 (UTC) (F)     (DEG/KT/KT) (MB)    (FT/S) (FT/S/D)
FRYING PAN BUOY  1950   84 84  100/  2/  4 1015.5F   2/ 5   2/200/ 5
BUOY 41025       1950   80 84  360/ 14/ 16 1014.6F   2/ 7   2/120/ 7
CAPE LOOKOUT NC  2000   78      80/  3/  4 1015.5R
BUOY 41002       1950   84 84  230/ 12/ 16 1015.8F   4/ 6   2/ 80/ 8
BUOY 41010       2000   86 87  290/  2/  4 1017.2
ST AUGUSTINE FL  2000   85 84  120/  9/ 11 1017.3R

$$




USA.gov is the U.S. government's official web portal to all federal, state and local government web resources and services.